^^
Station Historical Data
Daily Summary for November 10, 2018 Units:  Metric    English   Both
« Previous Day
Next Day »
Daily Weekly Monthly Yearly Custom
  High: Low: Average:
Temperature: -17.8 °C -3.5 °C -0.5 °C
Dew Point: -17.8 °C -7.1 °C -1.9 °C
Humidity: Humidity % 76 % 90 %
Wind Speed: 0 km/h 0 km/h 6.1 km/h
Wind Gust: 0 km/h - -
Wind:- - WNW
Pressure: 0 hPa 1003.3 hPa -
Precipitation: 12.95 mm    
Historical Graphs
 
 
Tabular Data for November 10, 2018
Time Temperature Dew Point Pressure Wind Wind Speed Wind Gust Humidity Rainfall Rate (Hourly) solar Conditions
-17.8 °C -17.8 °C 0 hPa Calm     Humidity % 0 mm SoftwareType W/m2 Conditions
00:00 0.3 °C 0.3 °C 1009.4 hPa Calm     100 % 0 mm WeatherDisplay:10.37 W/m2 RA
00:10 0.3 °C 0.3 °C 1009.4 hPa Calm     100 % 0.51 mm WeatherDisplay:10.37 W/m2 RA
00:15 0.3 °C 0.3 °C 1009 hPa Calm     100 % 0 mm WeatherDisplay:10.37 W/m2 RA
00:25 0.3 °C 0.3 °C 1009 hPa Calm     100 % 0.51 mm WeatherDisplay:10.37 W/m2 RA
00:30 0.3 °C 0.3 °C 1009 hPa Calm     100 % 0.25 mm WeatherDisplay:10.37 W/m2 RA
00:35 0.3 °C 0.3 °C 1009 hPa Calm     100 % 0.25 mm WeatherDisplay:10.37 W/m2 RA
00:40 0.3 °C 0.3 °C 1009 hPa Calm     100 % 0.51 mm WeatherDisplay:10.37 W/m2 RA
00:45 0.3 °C 0.3 °C 1008.7 hPa Calm     100 % 0.25 mm WeatherDisplay:10.37 W/m2 RA
00:50 0.3 °C 0.3 °C 1009 hPa Calm     100 % 0 mm WeatherDisplay:10.37 W/m2 RA
00:55 0.3 °C 0.3 °C 1009 hPa Calm     100 % 0.25 mm WeatherDisplay:10.37 W/m2 RA
01:00 0.3 °C 0.3 °C 1009 hPa Calm     100 % 0.25 mm WeatherDisplay:10.37 W/m2 RA
01:25 0.3 °C 0.3 °C 1008.4 hPa Calm     100 % 0.51 mm WeatherDisplay:10.37 W/m2 RA
01:30 0.3 °C 0.3 °C 1008 hPa Calm     100 % 0.25 mm WeatherDisplay:10.37 W/m2 RA
01:35 0.3 °C 0.3 °C 1008 hPa Calm     100 % 0.51 mm WeatherDisplay:10.37 W/m2 RA
01:40 0.3 °C 0.3 °C 1008 hPa Calm     100 % 0.25 mm WeatherDisplay:10.37 W/m2 RA
01:45 0.3 °C 0.3 °C 1008 hPa Calm     100 % 0.25 mm WeatherDisplay:10.37 W/m2 RA
01:55 0.3 °C 0.3 °C 1007.7 hPa Calm     100 % 0.25 mm WeatherDisplay:10.37 W/m2 RA
02:10 0.3 °C 0.3 °C 1007.3 hPa Calm     100 % 0.25 mm WeatherDisplay:10.37 W/m2 RA
02:15 0.3 °C 0.3 °C 1007.3 hPa Calm     100 % 0.25 mm WeatherDisplay:10.37 W/m2 RA
02:25 0.3 °C 0.3 °C 1007 hPa Calm     100 % 0 mm WeatherDisplay:10.37 W/m2 RA
02:50 0.4 °C 0.4 °C 1006.7 hPa Calm     100 % 0.25 mm WeatherDisplay:10.37 W/m2 RA
03:05 0.4 °C 0.4 °C 1006.3 hPa Calm     100 % 0.25 mm WeatherDisplay:10.37 W/m2 RA
03:25 0.4 °C 0.4 °C 1006 hPa Calm     100 % 0.25 mm WeatherDisplay:10.37 W/m2 RA
03:30 0.4 °C 0.4 °C 1006 hPa Calm     100 % 0 mm WeatherDisplay:10.37 W/m2 RA
03:45 0.4 °C 0.4 °C 1005.6 hPa Calm     100 % 0.25 mm WeatherDisplay:10.37 W/m2 RA
04:00 0.5 °C 0.5 °C 1005.3 hPa Calm     100 % 0.25 mm WeatherDisplay:10.37 W/m2 RA
04:10 0.5 °C 0.5 °C 1005 hPa Calm     100 % 0 mm WeatherDisplay:10.37 W/m2 RA
04:15 0.5 °C 0.5 °C 1005 hPa Calm     100 % 0.25 mm WeatherDisplay:10.37 W/m2 RA
04:30 0.5 °C 0.5 °C 1005 hPa Calm     100 % 0 mm WeatherDisplay:10.37 W/m2 RA
04:55 0.5 °C 0.5 °C 1005 hPa Calm     100 % 0.25 mm WeatherDisplay:10.37 W/m2 RA
05:00 0.6 °C 0.6 °C 1005 hPa Calm     100 % 0 mm WeatherDisplay:10.37 W/m2 RA
05:20 0.6 °C 0.6 °C 1004.6 hPa Calm     100 % 0 mm WeatherDisplay:10.37 W/m2 RA
05:25 0.6 °C 0.6 °C 1004.6 hPa Calm     100 % 0 mm WeatherDisplay:10.37 W/m2 FEW
05:30 0.5 °C 0.5 °C 1004.3 hPa Calm     100 % 0.25 mm WeatherDisplay:10.37 W/m2 RA
05:35 0.5 °C 0.5 °C 1004.3 hPa Calm     100 % 0.25 mm WeatherDisplay:10.37 W/m2 RA
05:40 0.5 °C 0.5 °C 1004.3 hPa Calm     100 % 0 mm WeatherDisplay:10.37 W/m2 RA
05:45 0.6 °C 0.6 °C 1004.3 hPa Calm     100 % 0 mm WeatherDisplay:10.37 W/m2 FEW
05:50 0.6 °C 0.6 °C 1004.3 hPa Calm     100 % 0 mm WeatherDisplay:10.37 W/m2 FEW
05:55 0.6 °C 0.6 °C 1003.9 hPa Calm     100 % 0 mm WeatherDisplay:10.37 W/m2 FEW
06:00 0.6 °C 0.6 °C 1003.9 hPa Calm     100 % 0 mm WeatherDisplay:10.37 W/m2 FEW
06:05 0.6 °C 0.6 °C 1003.9 hPa Calm     100 % 0 mm WeatherDisplay:10.37 W/m2 FEW
06:35 0.7 °C 0.7 °C 1003.9 hPa NNW 4.8 km/h 14.5 km/h 100 % 0.25 mm WeatherDisplay:10.37 W/m2 RA
06:45 0.8 °C 0.8 °C 1003.9 hPa Calm   11.3 km/h 100 % 0 mm WeatherDisplay:10.37 W/m2 FEW
06:55 0.9 °C 0.9 °C 1003.9 hPa WNW 1.6 km/h 8 km/h 100 % 0 mm WeatherDisplay:10.37 W/m2 FEW
07:00 0.9 °C 0.9 °C 1003.9 hPa NW 1.6 km/h 8 km/h 100 % 0 mm WeatherDisplay:10.37 W/m2 FEW
07:10 0.9 °C 0.9 °C 1003.9 hPa WNW 1.6 km/h 9.7 km/h 100 % 0 mm WeatherDisplay:10.37 W/m2 FEW
07:15 0.9 °C 0.9 °C 1003.9 hPa Calm   8 km/h 100 % 0 mm WeatherDisplay:10.37 W/m2 FEW
07:20 0.9 °C 0.9 °C 1003.9 hPa WNW 1.6 km/h 9.7 km/h 100 % 0 mm WeatherDisplay:10.37 W/m2 FEW
07:30 0.9 °C 0.9 °C 1003.9 hPa West 1.6 km/h 16.1 km/h 100 % 0 mm WeatherDisplay:10.37 W/m2 FEW
07:40 0.9 °C 0.9 °C 1004.3 hPa Calm   19.3 km/h 100 % 0 mm WeatherDisplay:10.37 W/m2 FEW
07:45 1 °C 1 °C 1004.3 hPa WNW 1.6 km/h 19.3 km/h 100 % 0 mm WeatherDisplay:10.37 W/m2 FEW
07:55 1 °C 1 °C 1004.3 hPa West 1.6 km/h 11.3 km/h 100 % 0 mm WeatherDisplay:10.37 W/m2 FEW
08:00 1 °C 1 °C 1004.3 hPa WNW 3.2 km/h 11.3 km/h 100 % 0 mm WeatherDisplay:10.37 W/m2 FEW
08:10 0.9 °C 0.9 °C 1004.3 hPa West 1.6 km/h 9.7 km/h 100 % 0 mm WeatherDisplay:10.37 W/m2 FEW
08:15 0.9 °C 0.9 °C 1004.3 hPa West 1.6 km/h 12.9 km/h 100 % 0 mm WeatherDisplay:10.37 W/m2 FEW
08:25 1 °C 1 °C 1004.3 hPa West 1.6 km/h 9.7 km/h 100 % 0 mm WeatherDisplay:10.37 W/m2 FEW
08:35 1 °C 1 °C 1004.3 hPa Calm   8 km/h 100 % 0 mm WeatherDisplay:10.37 W/m2 FEW
08:45 1 °C 1 °C 1004.3 hPa WSW 1.6 km/h 11.3 km/h 100 % 0 mm WeatherDisplay:10.37 W/m2 FEW
08:55 1 °C 1 °C 1004.3 hPa WNW 1.6 km/h 9.7 km/h 100 % 0 mm WeatherDisplay:10.37 W/m2 FEW
09:00 1 °C 1 °C 1004.3 hPa West 3.2 km/h 16.1 km/h 100 % 0 mm WeatherDisplay:10.37 W/m2 FEW
09:10 0.9 °C 0.9 °C 1004.3 hPa West 1.6 km/h 11.3 km/h 100 % 0 mm WeatherDisplay:10.37 W/m2 FEW
09:15 0.9 °C 0.9 °C 1004.3 hPa West 3.2 km/h 9.7 km/h 100 % 0 mm WeatherDisplay:10.37 W/m2 FEW
09:20 0.9 °C 0.9 °C 1003.9 hPa West 1.6 km/h 16.1 km/h 100 % 0 mm WeatherDisplay:10.37 W/m2 FEW
09:25 0.9 °C 0.9 °C 1003.9 hPa West 1.6 km/h 14.5 km/h 100 % 0 mm WeatherDisplay:10.37 W/m2 FEW
09:30 0.9 °C 0.9 °C 1003.9 hPa West 4.8 km/h 19.3 km/h 100 % 0 mm WeatherDisplay:10.37 W/m2 FEW
09:35 0.9 °C 0.9 °C 1003.9 hPa West 1.6 km/h 19.3 km/h 100 % 0 mm WeatherDisplay:10.37 W/m2 FEW
09:55 0.9 °C 0.9 °C 1004.3 hPa WNW 1.6 km/h 20.9 km/h 100 % 0 mm WeatherDisplay:10.37 W/m2 FEW
10:00 0.9 °C 0.9 °C 1003.9 hPa WNW 1.6 km/h 14.5 km/h 100 % 0 mm WeatherDisplay:10.37 W/m2 FEW
10:10 0.9 °C 0.9 °C 1003.9 hPa WNW 4.8 km/h 16.1 km/h 100 % 0 mm WeatherDisplay:10.37 W/m2 FEW
10:30 1.1 °C 1.1 °C 1003.6 hPa WNW 8 km/h 14.5 km/h 100 % 0 mm WeatherDisplay:10.37 W/m2 FEW
11:00 0.9 °C 0.3 °C 1003.6 hPa West 4.8 km/h 20.9 km/h 96 % 0 mm WeatherDisplay:10.37 W/m2 FEW
11:05 0.9 °C 0.2 °C 1003.6 hPa West 8 km/h 16.1 km/h 95 % 0 mm WeatherDisplay:10.37 W/m2 FEW
11:10 0.9 °C 0.2 °C 1003.6 hPa West 3.2 km/h 16.1 km/h 95 % 0 mm WeatherDisplay:10.37 W/m2 FEW
11:40 1.2 °C -0.6 °C 1003.6 hPa NW 12.9 km/h 35.4 km/h 88 % 0 mm WeatherDisplay:10.37 W/m2 FEW
12:05 1.1 °C -1.3 °C 1003.3 hPa West 1.6 km/h 24.1 km/h 84 % 0 mm WeatherDisplay:10.37 W/m2 FEW
12:15 1.3 °C -1.2 °C 1003.3 hPa West 4.8 km/h 24.1 km/h 84 % 0 mm WeatherDisplay:10.37 W/m2 FEW
12:20 1.3 °C -1.1 °C 1003.3 hPa WNW 3.2 km/h 19.3 km/h 84 % 0 mm WeatherDisplay:10.37 W/m2 FEW
12:35 1.2 °C -1.7 °C 1003.3 hPa WSW 11.3 km/h 32.2 km/h 81 % 0 mm WeatherDisplay:10.37 W/m2 FEW
12:50 1.2 °C -1.7 °C 1003.3 hPa WSW 4.8 km/h 16.1 km/h 81 % 0 mm WeatherDisplay:10.37 W/m2 FEW
13:00 1.2 °C -1.7 °C 1003.3 hPa SW 4.8 km/h 32.2 km/h 81 % 0 mm WeatherDisplay:10.37 W/m2 FEW
13:10 1 °C -1.9 °C 1003.6 hPa WNW 11.3 km/h 29 km/h 81 % 0 mm WeatherDisplay:10.37 W/m2 FEW
13:15 0.9 °C -1.8 °C 1003.6 hPa West 4.8 km/h 20.9 km/h 82 % 0 mm WeatherDisplay:10.37 W/m2 FEW
13:35 0.7 °C -1.2 °C 1003.6 hPa WNW 8 km/h 20.9 km/h 87 % 0 mm WeatherDisplay:10.37 W/m2 FEW
13:40 0.6 °C -1.3 °C 1003.9 hPa WNW 3.2 km/h 19.3 km/h 87 % 0 mm WeatherDisplay:10.37 W/m2 FEW
13:55 0.3 °C -1.6 °C 1003.9 hPa West 8 km/h 24.1 km/h 87 % 0 mm WeatherDisplay:10.37 W/m2 FEW
14:00 0.3 °C -1.8 °C 1003.9 hPa West 12.9 km/h 24.1 km/h 86 % 0 mm WeatherDisplay:10.37 W/m2 FEW
14:05 0.3 °C -1.9 °C 1003.9 hPa West 8 km/h 27.4 km/h 85 % 0 mm WeatherDisplay:10.37 W/m2 FEW
14:15 0.2 °C -2.1 °C 1003.9 hPa WNW 11.3 km/h 32.2 km/h 85 % 0 mm WeatherDisplay:10.37 W/m2 FEW
14:20 0.1 °C -2 °C 1004.3 hPa West 11.3 km/h 37 km/h 86 % 0 mm WeatherDisplay:10.37 W/m2 FEW
14:25 -0.1 °C -1.9 °C 1004.3 hPa WNW 4.8 km/h 32.2 km/h 87 % 0 mm WeatherDisplay:10.37 W/m2 FEW
14:40 -0.3 °C -2.1 °C 1003.9 hPa NW 8 km/h 22.5 km/h 88 % 0 mm WeatherDisplay:10.37 W/m2 FEW
14:45 -0.3 °C -2.1 °C 1004.3 hPa West 4.8 km/h 19.3 km/h 88 % 0 mm WeatherDisplay:10.37 W/m2 FEW
14:50 -0.3 °C -2.1 °C 1004.3 hPa WNW 8 km/h 19.3 km/h 88 % 0 mm WeatherDisplay:10.37 W/m2 FEW
15:10 -0.4 °C -1.9 °C 1004.3 hPa WNW 8 km/h 29 km/h 90 % 0 mm WeatherDisplay:10.37 W/m2 FEW
15:25 -0.5 °C -2.1 °C 1004.6 hPa West 11.3 km/h 33.8 km/h 89 % 0 mm WeatherDisplay:10.37 W/m2 FEW
15:55 -0.5 °C -2.1 °C 1004.6 hPa WNW 11.3 km/h 27.4 km/h 89 % 0 mm WeatherDisplay:10.37 W/m2 FEW
16:10 -0.5 °C -2.1 °C 1005 hPa WNW 8 km/h 19.3 km/h 89 % 0 mm WeatherDisplay:10.37 W/m2 FEW
16:15 -0.4 °C -2.1 °C 1005 hPa West 11.3 km/h 29 km/h 89 % 0 mm WeatherDisplay:10.37 W/m2 FEW
16:25 -0.4 °C -2.1 °C 1005 hPa West 4.8 km/h 19.3 km/h 88 % 0 mm WeatherDisplay:10.37 W/m2 FEW
16:30 -0.4 °C -2.1 °C 1005.3 hPa West 4.8 km/h 25.7 km/h 88 % 0 mm WeatherDisplay:10.37 W/m2 FEW
16:45 -0.6 °C -2 °C 1005.3 hPa NW 14.5 km/h 24.1 km/h 90 % 0 mm WeatherDisplay:10.37 W/m2 FEW
16:50 -0.7 °C -2.1 °C 1005.6 hPa NW 8 km/h 35.4 km/h 90 % 0 mm WeatherDisplay:10.37 W/m2 FEW
17:00 -0.8 °C -2.6 °C 1005.6 hPa WNW 11.3 km/h 40.2 km/h 88 % 0 mm WeatherDisplay:10.37 W/m2 FEW
17:10 -0.8 °C -2.8 °C 1006 hPa NW 14.5 km/h 29 km/h 86 % 0 mm WeatherDisplay:10.37 W/m2 FEW
17:20 -0.8 °C -2.9 °C 1006.3 hPa NW 11.3 km/h 27.4 km/h 86 % 0 mm WeatherDisplay:10.37 W/m2 FEW
17:25 -0.9 °C -3.1 °C 1006.7 hPa NW 8 km/h 24.1 km/h 85 % 0 mm WeatherDisplay:10.37 W/m2 FEW
17:30 -0.9 °C -3.2 °C 1006.7 hPa NW 16.1 km/h 27.4 km/h 85 % 0 mm WeatherDisplay:10.37 W/m2 FEW
17:45 -1.1 °C -3.8 °C 1007 hPa NNW 9.7 km/h 25.7 km/h 82 % 0 mm WeatherDisplay:10.37 W/m2 FEW
18:05 -1.2 °C -3.5 °C 1007.3 hPa NW 11.3 km/h 32.2 km/h 84 % 0 mm WeatherDisplay:10.37 W/m2 FEW
18:10 -1.2 °C -3.6 °C 1007.3 hPa NW 12.9 km/h 32.2 km/h 84 % 0 mm WeatherDisplay:10.37 W/m2 FEW
18:20 -1.3 °C -4 °C 1007.7 hPa NW 22.5 km/h 41.8 km/h 82 % 0 mm WeatherDisplay:10.37 W/m2 FEW
18:25 -1.4 °C -4.1 °C 1008 hPa NW 19.3 km/h 40.2 km/h 82 % 0 mm WeatherDisplay:10.37 W/m2 FEW
18:30 -1.5 °C -4 °C 1008.4 hPa NW 12.9 km/h 33.8 km/h 83 % 0 mm WeatherDisplay:10.37 W/m2 FEW
18:35 -1.6 °C -4.1 °C 1008.4 hPa NW 16.1 km/h 29 km/h 83 % 0 mm WeatherDisplay:10.37 W/m2 FEW
18:50 -1.8 °C -4.9 °C 1008.7 hPa NW 16.1 km/h 38.6 km/h 79 % 0 mm WeatherDisplay:10.37 W/m2 FEW
19:00 -2 °C -5.3 °C 1009 hPa NW 14.5 km/h 37 km/h 78 % 0 mm WeatherDisplay:10.37 W/m2 FEW
19:05 -2.1 °C -5.4 °C 1009 hPa NW 16.1 km/h 32.2 km/h 78 % 0 mm WeatherDisplay:10.37 W/m2 FEW
19:15 -2.2 °C -5.7 °C 1009.4 hPa NNW 12.9 km/h 35.4 km/h 77 % 0 mm WeatherDisplay:10.37 W/m2 FEW
19:25 -2.2 °C -5.6 °C 1009.7 hPa NW 19.3 km/h 38.6 km/h 78 % 0 mm WeatherDisplay:10.37 W/m2 FEW
19:30 -2.3 °C -5.6 °C 1009.7 hPa NW 12.9 km/h 32.2 km/h 78 % 0 mm WeatherDisplay:10.37 W/m2 FEW
19:40 -2.3 °C -5.4 °C 1010.4 hPa NW 16.1 km/h 32.2 km/h 79 % 0 mm WeatherDisplay:10.37 W/m2 FEW
19:45 -2.3 °C -5.6 °C 1010.4 hPa NW 9.7 km/h 32.2 km/h 78 % 0 mm WeatherDisplay:10.37 W/m2 FEW
19:50 -2.3 °C -5.6 °C 1010.4 hPa NW 16.1 km/h 35.4 km/h 78 % 0 mm WeatherDisplay:10.37 W/m2 FEW
19:55 -2.3 °C -5.6 °C 1010.4 hPa NW 12.9 km/h 25.7 km/h 78 % 0 mm WeatherDisplay:10.37 W/m2 FEW
20:05 -2.3 °C -5.4 °C 1010.7 hPa NNW 12.9 km/h 29 km/h 79 % 0 mm WeatherDisplay:10.37 W/m2 FEW
20:10 -2.3 °C -5.4 °C 1011.1 hPa NW 11.3 km/h 29 km/h 79 % 0 mm WeatherDisplay:10.37 W/m2 FEW
20:15 -2.3 °C -5.4 °C 1011.1 hPa NW 12.9 km/h 29 km/h 79 % 0 mm WeatherDisplay:10.37 W/m2 FEW
20:20 -2.3 °C -5.6 °C 1011.4 hPa NW 12.9 km/h 35.4 km/h 78 % 0 mm WeatherDisplay:10.37 W/m2 FEW
20:30 -2.3 °C -5.7 °C 1011.7 hPa NW 11.3 km/h 25.7 km/h 78 % 0 mm WeatherDisplay:10.37 W/m2 FEW
20:35 -2.3 °C -5.7 °C 1011.7 hPa WNW 9.7 km/h 22.5 km/h 78 % 0 mm WeatherDisplay:10.37 W/m2 FEW
20:40 -2.4 °C -5.7 °C 1011.7 hPa NW 12.9 km/h 29 km/h 78 % 0 mm WeatherDisplay:10.37 W/m2 FEW
20:45 -2.4 °C -5.7 °C 1012.1 hPa NW 11.3 km/h 24.1 km/h 78 % 0 mm WeatherDisplay:10.37 W/m2 FEW
20:50 -2.5 °C -5.8 °C 1012.1 hPa NW 20.9 km/h 37 km/h 78 % 0 mm WeatherDisplay:10.37 W/m2 FEW
21:05 -2.6 °C -6.2 °C 1012.4 hPa NW 16.1 km/h 33.8 km/h 76 % 0 mm WeatherDisplay:10.37 W/m2 FEW
21:25 -2.7 °C -6.2 °C 1012.8 hPa NW 12.9 km/h 40.2 km/h 77 % 0 mm WeatherDisplay:10.37 W/m2 FEW
21:30 -2.7 °C -6.2 °C 1012.8 hPa NW 11.3 km/h 32.2 km/h 77 % 0 mm WeatherDisplay:10.37 W/m2 FEW
21:35 -2.7 °C -6.2 °C 1013.1 hPa NW 11.3 km/h 32.2 km/h 77 % 0 mm WeatherDisplay:10.37 W/m2 FEW
21:55 -2.9 °C -6.5 °C 1013.4 hPa WNW 14.5 km/h 29 km/h 76 % 0 mm WeatherDisplay:10.37 W/m2 FEW
22:05 -2.9 °C -6.6 °C 1013.8 hPa NW 20.9 km/h 32.2 km/h 76 % 0 mm WeatherDisplay:10.37 W/m2 FEW
22:10 -2.9 °C -6.4 °C 1013.8 hPa NW 11.3 km/h 27.4 km/h 77 % 0 mm WeatherDisplay:10.37 W/m2 FEW
22:15 -2.9 °C -6.4 °C 1014.1 hPa NNW 8 km/h 24.1 km/h 77 % 0 mm WeatherDisplay:10.37 W/m2 FEW
22:20 -2.9 °C -6.3 °C 1014.1 hPa NW 9.7 km/h 25.7 km/h 78 % 0 mm WeatherDisplay:10.37 W/m2 FEW
22:25 -3 °C -6.3 °C 1014.1 hPa NW 8 km/h 22.5 km/h 78 % 0 mm WeatherDisplay:10.37 W/m2 FEW
22:35 -3.1 °C -6.3 °C 1014.1 hPa NW 4.8 km/h 25.7 km/h 78 % 0 mm WeatherDisplay:10.37 W/m2 FEW
22:50 -3.1 °C -6.4 °C 1014.4 hPa NNW 9.7 km/h 19.3 km/h 78 % 0 mm WeatherDisplay:10.37 W/m2 FEW
23:15 -3.2 °C -6.5 °C 1015.1 hPa NW 4.8 km/h 22.5 km/h 78 % 0 mm WeatherDisplay:10.37 W/m2 FEW
23:20 -3.2 °C -6.3 °C 1015.1 hPa NW 9.7 km/h 19.3 km/h 79 % 0 mm WeatherDisplay:10.37 W/m2 FEW
23:25 -3.2 °C -6.5 °C 1015.5 hPa NW 4.8 km/h 22.5 km/h 78 % 0 mm WeatherDisplay:10.37 W/m2 FEW
23:30 -3.3 °C -6.6 °C 1015.5 hPa NW 8 km/h 32.2 km/h 78 % 0 mm WeatherDisplay:10.37 W/m2 FEW
23:35 -3.3 °C -6.8 °C 1015.8 hPa NW 9.7 km/h 20.9 km/h 77 % 0 mm WeatherDisplay:10.37 W/m2 FEW
23:45 -3.4 °C -6.8 °C 1015.8 hPa NW 11.3 km/h 32.2 km/h 77 % 0 mm WeatherDisplay:10.37 W/m2 FEW
23:55 -3.5 °C -7.1 °C 1016.1 hPa NW 8 km/h 24.1 km/h 76 % 0 mm WeatherDisplay:10.37 W/m2 FEW
Juneau County Weather
Compliments of Weather Underground - 2.25 mb